This is the latest recevied weather packets stored in our database for station/object N9UMJ-12. If no packets are shown the sender has not sent any weather packets the latest 10 day(s).
| Time | Temp. | Humidity | Pressure | Rain* | Wind** | Luminosity | Snow |
|---|---|---|---|---|---|---|---|
| 1777954539 | 20.56° C | 62% | 1006.2 hPa | 0 mm | - | 0 W/m² | - |
| 1777953339 | 20.56° C | 61% | 1006.1 hPa | 0 mm | - | 0 W/m² | - |
| 1777943719 | 20.56° C | 62% | 1005.3 hPa | 0 mm | - | 0 W/m² | - |
| 1777941319 | 21.67° C | 60% | 1005.2 hPa | 0 mm | - | 8 W/m² | - |
| 1777939540 | 22.22° C | 58% | 1005.3 hPa | 0 mm | - | 46 W/m² | - |
| 1777934719 | 23.33° C | 55% | 1006.4 hPa | 0 mm | - | 199 W/m² | - |
| 1777933518 | 23.33° C | 54% | 1006.6 hPa | 0 mm | - | 173 W/m² | - |
| 1777931719 | 23.33° C | 55% | 1006.7 hPa | 0 mm | - | 166 W/m² | - |
| 1777928719 | 23.89° C | 53% | 1007.4 hPa | 0 mm | - | 299 W/m² | - |
| 1777925120 | 25° C | 51% | 1007.7 hPa | 0 mm | - | 523 W/m² | - |
| 1777917919 | 23.33° C | 60% | 1009.2 hPa | 0 mm | - | 372 W/m² | - |
| 1777916117 | 22.78° C | 61% | 1009.2 hPa | 0 mm | - | 950 W/m² | - |
| 1777913718 | 21.67° C | 65% | 1009.3 hPa | 0 mm | - | 686 W/m² | - |
| 1777912518 | 21.11° C | 68% | 1009.5 hPa | 0 mm | - | 626 W/m² | - |
| 1777911921 | 20.56° C | 69% | 1009.4 hPa | 0 mm | - | 489 W/m² | - |
| 1777910719 | 19.44° C | 71% | 1009.4 hPa | 0 mm | - | 750 W/m² | - |
| 1777905317 | 17.22° C | 77% | 1010.4 hPa | 0 mm | - | 188 W/m² | - |
| 1777904120 | 17.22° C | 77% | 1009.9 hPa | 0 mm | - | 467 W/m² | - |
| 1777898118 | 12.78° C | 92% | 1009.5 hPa | 0.25 mm | - | 122 W/m² | - |
| 1777896939 | 12.78° C | 92% | 1009.6 hPa | 0.25 mm | - | 70 W/m² | - |
| 1777893340 | 12.78° C | 89% | 1009.8 hPa | 1.02 mm | - | 3 W/m² | - |
| 1777892120 | 13.89° C | 83% | 1010.3 hPa | 0.76 mm | - | 1 W/m² | - |
| 1777889731 | 12.78° C | 79% | 1010.2 hPa | 0 mm | - | 0 W/m² | - |
| 1777884922 | 13.33° C | 75% | 1011.4 hPa | 0.25 mm | - | 0 W/m² | - |
| 1777881337 | 13.33° C | 71% | 1010.4 hPa | 0 mm | - | 0 W/m² | - |
* Rain latest hour (hover to see other rain measurements)
** Current wind speed in m/s (hover to see current wind gust speed)